Weather History for East Milton, MA

Change the Weather History Date:

Sunday, October 20, 2013

  Actual Average (KBOS) Record (KBOS)
Temperature  
Mean Temperature 53 °F 52 °F  
Max Temperature 61 °F 60 °F 79 °F (1969)
Min Temperature 45 °F 45 °F 32 °F (1972)
Degree Days  
Heating Degree Days 12 13  
Month to date heating degree days 193  
Since 1 July heating degree days 290  
Cooling Degree Days 0 0  
Month to date cooling degree days 6  
Year to date cooling degree days 746  
Growing Degree Days 3 (Base 50)    
Moisture  
Dew Point 38 °F    
Average Humidity 61    
Maximum Humidity 100    
Minimum Humidity 31    
Precipitation  
Precipitation 0.00 in 0.13 in 6.11 in (1996)
Month to date precipitation 2.55  
Year to date precipitation 34.61  
Snow  
Snow 0.00 in 0.00 in 0.00 in (2009)
Month to date snowfall 0.0  
Since 1 July snowfall 0.0  
Since 1 September snowfall 0.0  
Snow Depth -    
Sea Level Pressure  
Sea Level Pressure 29.87 in    
Wind  
Wind Speed 12 mph (West)    
Max Wind Speed 18 mph    
Max Gust Speed 32 mph    
T = Trace of Precipitation, MM = Missing Value Source: NWS Daily Summary

Daily Weather History Graph

Daily Weather History Graph

Search for Another Location

Airport:

Trip Planner

Search our weather history database for the weather conditions in past years. The results will help you decide how hot, cold, wet, or windy it might be!

Date:

Astronomy

Oct. 20, 2013 Rise Set
Actual Time 7:03 AM EDT 5:54 PM EDT
Civil Twilight 6:34 AM EDT 6:22 PM EDT
Nautical Twilight 6:02 AM EDT 6:55 PM EDT
Astronomical Twilight 5:29 AM EDT 7:27 PM EDT
Moon 6:58 PM EDT (10/20) 8:39 AM EDT (10/20)
Length of Visible Light 11h 48m
Length of Day
10h 51m
Full, 97% of the Moon is Illuminated
Oct 20
Full
Oct 26
Last Quarter
Nov 3
New
Nov 10
First Quarter
Nov 17
Full

Hourly Weather History & Observations

Time (EDT) Temp. Windchill Dew Point Humidity Pressure Visibility Wind Dir Wind Speed Gust Speed Precip Events Conditions
12:54 AM 52.0 °F - 46.0 °F 80% 29.75 in - SSE 11.5 mph - N/A   Unknown
1:54 AM 53.1 °F - 50.0 °F 89% 29.75 in - South 10.4 mph - N/A   Unknown
2:54 AM 53.1 °F - 50.0 °F 89% 29.73 in - SSW 9.2 mph - N/A   Unknown
3:54 AM 53.1 °F - 50.0 °F 89% 29.73 in - SSW 11.5 mph - N/A   Unknown
4:54 AM 52.0 °F - 51.1 °F 97% 29.73 in - WSW 10.4 mph - N/A   Unknown
5:54 AM 50.0 °F - 50.0 °F 100% 29.75 in - WSW 12.7 mph - N/A   Unknown
6:54 AM 48.9 °F - 48.0 °F 97% 29.77 in - West 16.1 mph - N/A   Unknown
7:54 AM 48.9 °F - 43.0 °F 80% 29.81 in - WNW 15.0 mph 25.3 mph N/A   Unknown
8:54 AM 50.0 °F - 37.9 °F 63% 29.83 in - WNW 13.8 mph 25.3 mph N/A   Unknown
9:54 AM 52.0 °F - 37.9 °F 59% 29.85 in - WNW 13.8 mph 24.2 mph N/A   Unknown
10:54 AM 54.0 °F - 37.0 °F 53% 29.86 in - WNW 18.4 mph 27.6 mph N/A   Unknown
11:54 AM 57.0 °F - 37.0 °F 47% 29.87 in - West 6.9 mph 19.6 mph N/A   Unknown
12:54 PM 59.0 °F - 35.1 °F 41% 29.86 in - West 18.4 mph 24.2 mph N/A   Unknown
1:54 PM 60.1 °F - 32.0 °F 35% 29.86 in - West 18.4 mph 27.6 mph N/A   Unknown
2:54 PM 60.1 °F - 28.9 °F 31% 29.87 in - WNW 16.1 mph 32.2 mph N/A   Unknown
3:54 PM 59.0 °F - 30.0 °F 33% 29.89 in - WNW 16.1 mph 26.5 mph N/A   Unknown
4:54 PM 57.0 °F - 28.9 °F 34% 29.91 in - NW 15.0 mph 26.5 mph N/A   Unknown
5:54 PM 54.0 °F - 30.0 °F 40% 29.94 in - WNW 10.4 mph - N/A   Unknown
6:54 PM 51.1 °F - 30.0 °F 44% 29.97 in - WNW 11.5 mph - N/A   Unknown
7:54 PM 51.1 °F - 30.9 °F 46% 29.99 in - WNW 9.2 mph - N/A   Unknown
8:54 PM 48.9 °F - 30.9 °F 50% 30.01 in - West 10.4 mph - N/A   Unknown
9:54 PM 48.0 °F - 30.9 °F 52% 30.03 in - WNW 12.7 mph - N/A   Unknown
10:54 PM 46.9 °F - 32.0 °F 56% 30.04 in - WNW 10.4 mph - N/A   Unknown
11:54 PM 45.0 °F 40.1 °F 32.0 °F 60% 30.05 in - WNW 9.2 mph - N/A   Unknown